Regional Weather Roundup
Issued by NWS Grand Forks, ND

Home | Current Version | Previous Version | Graphics & Text | Print | Product List | Glossary On
Versions: 1 2 3 4 5 6 7 8 9 10 11 12 13 14 15 16 17 18 19 20 21 22 23 24 25 26 27 28 29 30 31 32 33 34 35 36 37 38 39 40 41 42 43 44 45 46 47 48 49 50
000
ASUS43 KFGF 171331
RWRFGF
PRAIRIE TO PINES  WEATHER ROUNDUP
NATIONAL WEATHER SERVICE EASTERN NORTH DAKOTA/GRAND FORKS ND
800 AM CDT THU APR 17 2014

 **SATELLITE DATA USED TO AUGMENT SKY COVER AT AUTOMATED STATIONS**
 *****  WEATHER ACROSS EASTERN NORTH DAKOTA  *****

CITY           SKY/WX    TMP DP  RH WIND       PRES   REMARKS
GRAND FORKS    SUNNY     24  19  81 N9        30.36R WCI  14
GRAND FRKS AFB SUNNY     24  17  75 N7        30.37R WCI  16
GRAND FRKS NWS   N/A     27 N/A N/A N9          N/A  WCI  17
DEVILS LAKE    SUNNY     21  10  63 NE3       30.34R
FARGO          SUNNY     25  19  78 N9        30.33R WCI  15
WAHPETON ARPT  SUNNY     28  19  69 N9        30.33R WCI  20
$$

 ***** WEATHER ACROSS CENTRAL AND WESTERN NORTH DAKOTA  *****

CITY           SKY/WX    TMP DP  RH WIND       PRES   REMARKS
BISMARCK       CLOUDY    24  16  71 E7        30.32S WCI  16
MINOT          CLOUDY    23  12  62 E9        30.31S WCI  13
JAMESTOWN      SUNNY     21  17  84 N6        30.32R WCI  13
MINOT AFB      PTSUNNY   22  15  72 SE7       30.31S WCI  14
GARRISON         N/A     24  15  68 E9        30.29S WCI  14
WILLISTON      CLOUDY    27  21  78 SE14      30.21S WCI  16
DICKINSON      CLOUDY    27  18  69 SE18      30.18R WCI  14
HETTINGER      LGT SNOW  27  23  85 SE13      30.20R FOG     WCI  16
$$

 *****  OTHER AIRPORT OBSERVATIONS IN OUR AREA  *****

CITY           SKY/WX    TMP DP  RH WIND       PRES   REMARKS
WALHALLA         N/A     19  14  79 N7        30.40R WCI  10
GRAFTON AIRPOR FAIR      23  16  74 N12       30.38R WCI  12
VALLEY CITY AR NOT AVBL
CANDO          FAIR      19  12  73 NE6       30.35R WCI  11
CAVALIER APRT  FAIR      23  14  68 N9        30.39R WCI  13
GWINNER        SUNNY     28  21  74 N10       30.35R WCI  19
ROLLA          FAIR      19   9  63 NE6       30.33S WCI  11
 ***** THE ABOVE OBSERVATIONS ARE NON NWS ARE NOT QUALITY
       CONTROLLED AND MAY MIS-REPORT RAIN FOR SNOW...
$$

  *****  WEATHER ACROSS NORTHERN MINNESOTA  *****

CITY           SKY/WX    TMP DP  RH WIND       PRES   REMARKS
FLAG ISLAND    SUNNY     19   7  58 NE7       30.35R WCI  10
WARROAD        SUNNY     21   7  53 NE8       30.35R WCI  12
ROSEAU         SUNNY     25  10  54 NE7       30.35R WCI  17
HALLOCK        CLOUDY    25  12  58 N6        30.37R WCI  18
THF RVR FALLS  SUNNY     27  10  50 NE8       30.34R WCI  18
BAUDETTE       SUNNY     23   8  52 N3        30.32R
WASKISH        SUNNY     27  10  50 N6        30.30R WCI  20
CROOKSTON      SUNNY     27  18  69 N7        30.36R WCI  19
$$
  *****  WEATHER ACROSS CENTRAL AND WEST MINNESOTA  *****

CITY           SKY/WX    TMP DP  RH WIND       PRES   REMARKS
FOSSTON        SUNNY     25  12  58 CALM      30.31R
BEMIDJI        SUNNY     25  12  57 N6        30.27R WCI  18
PARK RAPIDS    MOSUNNY   25  14  63 N10       30.25R WCI  15
ELBOW LAKE     FAIR      24  19  80 N9        30.28R WCI  14
WADENA         SUNNY     23  16  74 N9        30.26R WCI  13
DETROIT LAKES  SUNNY     27  19  74 N3        30.29R
MOORHEAD       SUNNY     27  23  86 N9        30.34R WCI  17
FERGUS FALLS   SUNNY     27  14  59 N6        30.29R WCI  20
MORRIS MN      SUNNY     23  18  80 NW9       30.28R WCI  13
STAPLES        CLOUDY    23  18  80 N7        30.24S WCI  15
$$
  *****  WEATHER ELSEWHERE ACROSS MINNESOTA  *****

CITY           SKY/WX    TMP DP  RH WIND       PRES   REMARKS
DULUTH         CLOUDY    26  21  81 N13       30.14R WCI  15
INTRNTL FALLS  MOSUNNY   22   9  57 N7        30.29R WCI  13
ELY            CLOUDY    25  21  86 N5        30.20R WCI  19
CLOQUET        CLOUDY    27  21  80 NW15      30.16R WCI  15
WHEATON        SUNNY     28  23  80 NW6       30.34R WCI  22
BRAINERD       CLOUDY    30  19  63 N9        30.22R WCI  22
HIBBING        CLOUDY    27  20  75 N14       30.20S WCI  16
ALEXANDRIA     SUNNY     23  16  74 N13       30.24R WCI  11
SAINT CLOUD    CLOUDY    28  21  75 N12       30.20R WCI  18
MINNEAPOLIS    CLOUDY    29  27  92 NW13      30.16R WCI  19
$$

  *****  WEATHER ACROSS SOUTH DAKOTA  *****

CITY           SKY/WX    TMP DP  RH WIND       PRES   REMARKS
SIOUX FALLS    MOSUNNY   23  19  85 NW6       30.28R WCI  16
BROOKINGS      NOT AVBL
WATERTOWN      SUNNY     16  13  88 N8        30.28R WCI   5
HURON          SUNNY     20  17  88 NW7       30.34R WCI  11
SISSETON         N/A     23  17  78 NW13      30.31R WCI  11
ABERDEEN       SUNNY     20  17  88 N8        30.34R WCI  10
MITCHELL       SUNNY     23  20  88 NW5       30.34R WCI  17
PIERRE         CLOUDY    25  20  81 NE5       30.29R WCI  19
MOBRIDGE       CLOUDY    25  16  68 SE6       30.27S WCI  18
RAPID CITY     CLOUDY    31  27  85 SE14      30.15S WCI  21
$$

  *****  SOME WEATHER IN NEARBY STATES *****

CITY           SKY/WX    TMP DP  RH WIND       PRES   REMARKS
GLASGOW MT     CLEAR     24  21  88 E18       30.06F WCI  10
GREAT FALLS MT CLOUDY    37  30  75 S10       29.87F
CHEYENNE WY    FOG       30  29  96 SW8       30.08R VSB 1/4 WCI  22
SCOTTSBLUFF NE CLOUDY    33  30  88 SE9       30.15R
OMAHA NE       CLOUDY    33  24  69 N17       30.29R WCI  22
DES MOINES IA  CLOUDY    36  27  69 NW16      30.24R
DAVENPORT IA   CLOUDY    39  33  79 W14       30.16R
CHICAGO IL     MOSUNNY   45  27  49 S16       30.14R
EAU CLAIRE WI  CLOUDY    36  34  92 N7        30.06R
LA CROSSE WI   SUNNY     45  37  73 NW15      30.04R
$$

  *****  SOME NATIONAL WEATHER *****

CITY           SKY/WX    TMP DP  RH WIND       PRES   REMARKS
LA GUARDIA NY  MOSUNNY   39  21  48 NE15      30.72R
RALEIGH NC     PTSUNNY   42  31  64 NE12G22   30.55R
ATLANTA GA     PTSUNNY   46  36  68 E12       30.41R
NEW ORLEANS LA PTSUNNY   59  55  87 NE9       30.18R
OKLAHOMA CITY  CLOUDY    52  37  58 E9        30.15R
ALBUQUERQUE NM CLEAR     47  30  51 E18       30.09R
SALT LAKE CITY PTCLDY    39  21  48 SE9       30.04R
LOS ANGELES CA CLOUDY    60  52  74 SE3       29.87S
BOISE ID       CLEAR     43  23  45 SE9       29.95F
SEATTLE WA     LGT RAIN  50  48  93 S8        29.88F
$$

*** WEATHER ACROSS MANITOBA...SASKATCHEWAN AND ONTARIO ***
                ***ONTARIO***

CITY           SKY/WX    TMP DP  RH WIND       PRES   REMARKS
GERALDTON      CLOUDY    18   7  62 E5        30.39F WCI  11
THUNDER BAY    SNOW      28  27  93 E20       30.27F VSB 1/2 WCI  15
SIOUX LOOKOUT  PTSUNNY   18   1  49 E5        30.37R WCI  11
TORONTO        PTSUNNY   37  21  52 E14G25    30.54S
BIG TROUT LK   SUNNY      5  -4  66 S3        30.43
PICKLE LAKE    MOSUNNY    7  -6  56 CALM      30.42R
DRYDEN         SUNNY     18   3  53 NE7       30.35R WCI   8
KENORA         SUNNY     18   3  53 E9        30.35R WCI   6
$$
                *** MANITOBA***

CITY           SKY/WX    TMP DP  RH WIND       PRES   REMARKS
BRANDON        SUNNY     16   9  73 NE6       30.39S WCI   7
DAUPHIN        SUNNY     16  10  79 W6        30.42S WCI   7
ISLAND LAKE    MOSUNNY   10   0  61 CALM      30.44R
PILOT MOUND      N/A     18  10  73 N5          N/A  WCI  11
THE PAS        SUNNY     10   1  67 SE6       30.39F WCI   1
THOMPSON       SUNNY      1  -6  71 W2        30.38S
WINNIPEG       SUNNY     16   7  67 NE8       30.41R WCI   5
LYNN LAKE      SUNNY      7  -4  61 SW6       30.31S WCI  -3
CHURCHILL      MOSUNNY   16   3  57 W20G28    30.12S WCI  -1
GILLAM         SUNNY     12   1  62 SW5       30.34S WCI   4
$$
                ***SASKATCHEWAN***

CITY           SKY/WX    TMP DP  RH WIND       PRES   REMARKS
ESTEVAN        MOCLDY    23  16  74 SE12      30.26F WCI  12
KINDERSLEY     CLOUDY    25  21  86 SE20      29.96F WCI  11
LLOYDMINSTER   LGT SNOW  23  21  93 E15       30.00S WCI  10
PRINCE ALBERT  MOCLDY    16  10  79 E6        30.25S WCI   7
REGINA         CLOUDY    25  14  63 SE18      30.21S WCI  11
YORKTON        CLEAR     18  10  73 SE9       30.32S WCI   6
N. BATTLEFORD  LGT SNOW  23  21  93 SE23      30.09F WCI   7
LA RONGE       CLEAR      7  -2  66 NE3       30.30S
SASKATOON      CLOUDY    25  18  74 SE17G25   30.16F WCI  11
SWIFT CURRENT  CLOUDY    25  21  86 SE20G31   29.98F WCI  11
$$
NOTE: THESE ARE AUTOMATED STATIONS WITH LIMITED QUALITY CONTROL
      "FAIR" INDICATES FEW OR NO CLOUDS BELOW 12,000 FEET WITH NO
      SIGNIFICANT WEATHER AND/OR OBSTRUCTIONS TO VISIBILITY.
      SKY/WX - SKY CONDITION AND SIGNIFICANT WEATHER.
      TMP - AIR TEMPERATURE.    DP   - DEWPOINT TEMPERATURE.
      RH  - RELATIVE HUMIDITY.  PRES - PRESSURE.
      HX  - HEAT INDEX.         WCI  - WIND CHILL INDEX.
$



USA.gov is the U.S. government's official web portal to all federal, state and local government web resources and services.